Retour au catalogue

STARLINK-3724

ActifCommunicationsVLEO
NORAD 52305·PAYLOAD·🇺🇸 United States

Lancé Apr 21, 2022 depuis Cape Canaveral Space Force Station

Loading…

Prochains Passages (prochaines 24 heures)

TLE

FraisSource: CelesTrak SupGP

Époque: Sep 15, 2026, 02:16 UTC

1 52305C 22041AW  26258.09493056  .00045524  00000+0  13815-2 0  2580
2 52305  53.1584 317.0788 0001231  94.0347 190.5083 15.33523166    13

Suivez STARLINK-3724 en temps réel avec AllMySat

Download on the App Store